Regional Weather Roundup
Issued by NWS

Home | Current Version | Previous Version | Graphics & Text | Print | Product List | Glossary On
Versions: 1 2 3 4 5 6 7 8 9 10 11 12 13 14 15 16 17 18 19 20 21 22 23 24 25 26 27 28 29 30 31 32 33 34 35 36 37 38 39 40 41 42 43 44 45 46 47 48 49 50
000
ASUS43 KMKX 171759
RWRWI

WISCONSIN REGIONAL WEATHER ROUNDUP
NATIONAL WEATHER SERVICE MILWAUKEE/SULLIVAN WI
1200 PM CST WED JAN 17 2018

NOTE: "FAIR" INDICATES FEW OR NO CLOUDS BELOW 12,000 FEET WITH NO
SIGNIFICANT WEATHER AND/OR OBSTRUCTIONS TO VISIBILITY.

WIZ001-002-006>008-014>016-023>028-171900-
NORTHWEST WISCONSIN

CITY           SKY/WX    TMP DP  RH WIND       PRES   REMARKS
SUPERIOR ARPT  FAIR      18   2  49 SW22      30.06F WCI   1
ASHLAND        FAIR      20   3  48 SW18G31   30.01F WCI   5
6HR MIN TEMP:   5; 6HR MAX TEMP:  20;

HAYWARD        FAIR      17   2  51 SW14G21   30.09F WCI   3
6HR MIN TEMP:   2; 6HR MAX TEMP:  17;

SIREN          FAIR      16   2  54 SW14      30.16F WCI   1
CUMBERLAND     FAIR      14   3  62 SW13      30.17F WCI   0
RICE LAKE      FAIR      16   4  57 S3        30.21F
CHETEK         FAIR      15   2  58 SW6       30.22F WCI   6
LADYSMITH      FAIR      13   2  61 S10G16    30.19F WCI   0
6HR MIN TEMP:  -4; 6HR MAX TEMP:  13;

EAU CLAIRE     FAIR      18   3  52 SW12G26   30.24F HAZE    WCI   5
MENOMONIE      FAIR      19   5  52 S9        30.24F WCI   9
6HR MIN TEMP:  -4; 6HR MAX TEMP:  19;

NEW RICHMOND   FAIR      17   2  54 SW13      30.22F WCI   3
OSCEOLA        FAIR      17   4  56 S7        30.25F WCI   8
$$

WIZ003>005-009-010-017-018-171900-
NORTH CENTRAL WISCONSIN

CITY           SKY/WX    TMP DP  RH WIND       PRES   REMARKS
MANITOWISH WTR LGT SNOW  14   1  55 SW13      30.05F WCI   0
ARBOR VITAE    HAZE      17   6  61 W12G21    30.07F VSB 3/4 WCI   4
WOODRUFF       HAZE      17   6  61 W12G21    30.07F VSB 3/4 WCI   4
RHINELANDER    FAIR      15   4  61 SW15G24   30.08F WCI   0
6HR MIN TEMP:   4; 6HR MAX TEMP:  15;

EAGLE RIVER    LGT SNOW  16   3  56 SW17G24   30.04F WCI   0
6HR MIN TEMP:   4; 6HR MAX TEMP:  16;

LAND O LAKES   FAIR      20   6  54 SW12G18   30.03F WCI   7
PHILLIPS       FAIR      13   1  58 SW12G17   30.11F WCI   0
6HR MIN TEMP:   0; 6HR MAX TEMP:  13;

TOMAHAWK       FAIR      15   3  59 SW7       30.15F WCI   5
MEDFORD        FAIR      11   2  65 SW8       30.19F WCI  -1
MERRILL        FAIR      15   3  59 SW9       30.18F WCI   3
6HR MIN TEMP:   0; 6HR MAX TEMP:  15;

$$

WIZ029-030-035-036-043>047-171900-
CENTRAL WISCONSIN

CITY           SKY/WX    TMP DP  RH WIND       PRES   REMARKS
WAUSAU         FAIR      15   2  56 W14       30.19F WCI   0
6HR MIN TEMP:   0; 6HR MAX TEMP:  15;

MOSINEE        NOT AVBL
MARSHFIELD     FAIR      15   3  59 SW16      30.21F WCI  -1
6HR MIN TEMP:  -1; 6HR MAX TEMP:  15;

STEVENS POINT  FAIR      14   0  54 W14G26    30.26F WCI  -1
WAUPACA        FAIR      19   3  51 SW16G23   30.29F WCI   4
WAUTOMA        FLURRIES  22   7  52 SW13G23   30.29F WCI  10
6HR MIN TEMP:  -1; 6HR MAX TEMP:  22;

WISC RAPIDS    FAIR      18   2  49 SW16      30.27F WCI   3
6HR MIN TEMP:   0; 6HR MAX TEMP:  18;

CAMP DOUGLAS   MOSUNNY   19   3  49 SW14      30.30F WCI   6
$$

WIZ011>013-019>022-031-037>040-048>050-171900-
NORTHEAST WISCONSIN

CITY           SKY/WX    TMP DP  RH WIND       PRES   REMARKS
ANTIGO         FAIR      13   2  61 W16       30.15F WCI  -3
SHAWANO        FAIR      20   4  49 SW10G20   30.21F WCI   8
6HR MIN TEMP:   7; 6HR MAX TEMP:  20;

OCONTO         FAIR      17   3  55 W14G23    30.22F WCI   3
STURGEON BAY   FLURRIES  16   4  59 SW18G28   30.18  WCI   0
6HR MIN TEMP:   5; 6HR MAX TEMP:  16;

GREEN BAY      FAIR      18   3  52 SW16G25   30.24F WCI   3
6HR MIN TEMP:   5; 6HR MAX TEMP:  18;

MANITOWOC      FAIR      18   4  54 W18G24    30.27F WCI   2
6HR MIN TEMP:   5; 6HR MAX TEMP:  19;

APPLETON       MOSUNNY   16   1  53 SW16G23   30.25F WCI   0
CLINTONVILLE   FAIR      16   3  57 W13       30.26F WCI   2
OSHKOSH        FAIR      17   4  56 W14G25    30.29F WCI   3
6HR MIN TEMP:   3; 6HR MAX TEMP:  17;

$$

WIZ032>034-041-042-053>061-171900-
SOUTHWEST WISCONSIN

CITY           SKY/WX    TMP DP  RH WIND       PRES   REMARKS
LA CROSSE      FAIR      20   5  52 S10       30.35F WCI   9
6HR MIN TEMP:  -1; 6HR MAX TEMP:  20;

SPARTA         FAIR      18   4  55 W8        30.35F WCI   8
VIROQUA        FAIR      18   6  60 SW21G26   30.33F WCI   1
6HR MIN TEMP:  -4; 6HR MAX TEMP:  18;

BOSCOBEL       FAIR      19   5  54 SW13G22   30.42F WCI   6
6HR MIN TEMP:  -5; 6HR MAX TEMP:  19; 6HR PCP: TRACE;

PRAIRIE DU CHI FAIR      19   3  50 SW9       30.44F WCI   8
PLATTEVILLE    FAIR      18  10  70 SW16      30.44F WCI   3
$$

WIZ056-057-062-063-064-067-068-171900-
SOUTH CENTRAL WISCONSIN

CITY           SKY/WX    TMP DP  RH WIND       PRES   REMARKS
REEDSBURG      FAIR      15   4  62 SW10      30.37F WCI   2
BARABOO/DELLS  FAIR      16   4  58 SW15      30.36F WCI   1
LONE ROCK      NOT AVBL
MINERAL POINT  FAIR      18  10  73 SW12      30.40F WCI   5
MADISON        FAIR      16   6  65 SW12G20   30.39F WCI   3
6HR MIN TEMP:   0; 6HR MAX TEMP:  16;

MIDDLETON      FAIR      19   7  60 SW10      30.40F WCI   7
WATERTOWN      FAIR      15   6  68 SW13      30.39F WCI   1
MONROE         FAIR      16   9  73 SW16G22   30.41F WCI   0
JANESVILLE     SUNNY     16   9  73 SW13      30.43F WCI   2
$$

WIZ051-052-058>065-066-070>072-171900-
SOUTHEAST WISCONSIN

CITY           SKY/WX    TMP DP  RH WIND       PRES   REMARKS
MILWAUKEE      FAIR      20   9  62 SW13G22   30.39F WCI   7
6HR MIN TEMP:   5; 6HR MAX TEMP:  20;

WAUKESHA       SUNNY     18   7  62 W17G23    30.39F WCI   2
MILWAUKEE/TIMM SUNNY     19   5  53 W20G25    30.40F WCI   4
RACINE         FAIR      18   8  65 SW18G30   30.42F WCI   2
6HR MIN TEMP:   4; 6HR MAX TEMP:  18;

BURLINGTON     FAIR      15   6  68 W13G21    30.43F WCI   1
KENOSHA        FAIR      17   7  64 W16       30.42F WCI   2
6HR MIN TEMP:   1; 6HR MAX TEMP:  17;

FOND DU LAC    FAIR      17   3  54 SW17G24   30.32F WCI   1
6HR MIN TEMP:   3; 6HR MAX TEMP:  17;

SHEBOYGAN      FAIR      20   8  60 W20G26    30.30F WCI   4
6HR MIN TEMP:   2; 6HR MAX TEMP:  21;

WEST BEND        N/A     18   7  62 W17G26    30.35F HAZE    WCI   2
JUNEAU         LGT SNOW  14   5  67 SW18G25   30.38F VSB 3/4 WCI  -3
$$

LSZ147-162-171900-
LAKE SUPERIOR

STATION/POSITION TIME  TEMP    WIND        PRES    WAVE
                       AIR SEA DIR/SP/G            HT/PER
                 (UTC) (F)     (DEG/KT/KT) (MB)    (FT/S)
DEVILS ISLAND    1700   17     230/ 31/ 35 1016.8F
SAXON HARBOR     1740   23     200/ 15/ 23 1015.6F
$$

LMZ867-665-643>646-171900-
LAKE MICHIGAN

STATION/POSITION TIME  TEMP    WIND        PRES    WAVE
                       AIR SEA DIR/SP/G            HT/PER
                 (UTC) (F)     (DEG/KT/KT) (MB)    (FT/S)
NORTHPORT PIER   1730   15     240/  4/ 15 1021.0F
KEWAUNEE LAKESHO 1730   16     260/ 18/ 24 1023.7F
SHEBOYGAN LAKESH 1700   17     230/ 13/ 15 1029.5F
PORT WASHINGTON  1740   21     260/ 12/ 23 1029.1F
MILWAUKEE LAKESH 1730   19     250/ 10/ 13   N/A
KENOSHA   LAKESH 1700   16     250/ 13/ 17 1031.8
$$

TC  - TEMPERATURE IN CELSIUS
VSB - VISIBILITY IN STATUTE MILES
WCI - WIND CHILL INDEX
HX  - HEAT INDEX





USA.gov is the U.S. government's official web portal to all federal, state and local government web resources and services.